Wind_Speed
20 20 20 21 20 19 20 20 20 20 19 19 20 21 21 21 21 20 19 18 18 17 17 16 15 15 16 15 15 15 15 16 16 16 15 14 13 13
21 21 21 21 21 20 20 21 21 21 20 20 21 21 21 21 21 20 20 19 19 18 17 17 16 17 17 17 17 16 16 16 16 16 15 14 14 14
22 22 22 22 21 21 21 22 22 21 21 21 21 21 20 20 20 20 20 20 20 19 18 17 17 18 17 18 17 17 17 17 16 16 15 15 14 15
23 23 23 23 22 21 21 21 21 21 21 20 20 19 19 19 19 20 19 19 18 18 19 19 18 19 19 19 19 19 18 18 17 16 16 16 16 16
24 24 24 23 22 21 21 21 21 21 20 20 20 20 20 19 19 18 18 18 18 18 19 20 19 20 19 19 20 20 19 18 17 17 17 17 17 17
24 24 24 23 22 21 21 21 20 20 20 20 20 21 20 20 19 19 18 18 18 19 20 20 20 20 20 20 20 20 19 19 18 17 17 17 18 18
24 24 24 23 21 21 20 20 20 21 21 21 21 20 20 20 20 19 18 18 18 19 19 19 20 20 20 20 20 20 20 19 19 18 18 18 19 19
23 22 22 21 20 20 20 20 21 21 21 21 21 20 20 20 19 19 19 19 18 18 19 19 20 20 20 20 19 19 20 20 20 19 19 19 19 19
22 21 20 20 21 21 21 21 21 22 22 22 22 21 21 20 20 20 20 20 19 19 20 20 20 20 20 20 20 20 21 21 21 20 20 21 20 20
21 21 21 21 22 22 21 22 22 23 23 23 23 22 21 21 21 20 20 20 20 21 21 21 21 21 21 21 21 21 21 21 21 21 21 22 21 21
21 22 22 22 22 22 22 23 23 23 23 23 23 22 22 21 21 20 21 21 21 21 21 21 22 22 21 21 22 22 22 22 23 22 22 23 23 23
22 22 22 22 22 22 23 23 23 23 23 23 23 23 22 21 21 21 21 22 22 22 22 22 22 23 22 22 22 22 23 23 24 24 24 24 24 25
23 22 22 22 23 22 23 24 24 24 23 23 23 23 22 22 22 22 22 22 22 23 22 23 23 23 23 23 24 24 24 24 25 25 26 26 26 26
23 22 22 22 22 22 23 23 23 24 24 23 23 23 22 22 22 22 22 23 23 23 24 24 24 24 24 24 25 25 25 26 26 27 26 26 27 28
24 23 23 23 23 23 24 24 24 24 24 24 24 24 23 23 23 23 23 23 24 25 25 25 25 25 25 25 25 26 26 26 27 27 26 26 27 28
25 25 25 25 25 24 24 24 24 24 24 24 24 24 24 24 24 24 24 25 25 26 26 26 26 26 25 25 26 26 26 26 27 28 27 27 28 28
27 27 27 26 26 25 25 25 25 25 25 25 25 25 25 26 26 25 26 27 27 27 27 27 28 28 27 27 27 27 28 27 28 29 28 28 27 28
28 28 28 27 26 26 25 26 26 26 26 27 26 27 27 27 27 27 27 28 28 28 28 28 28 29 29 28 28 28 28 28 28 29 29 28 28 27
28 28 28 28 28 28 27 27 27 27 27 28 28 28 29 29 29 29 29 29 29 29 29 29 29 30 30 29 28 28 28 28 29 29 30 29 30 29
28 28 28 29 29 28 28 28 28 28 28 29 29 29 30 30 29 29 30 30 30 30 30 30 30 30 30 29 29 29 29 29 29 30 30 30 30 30
30 30 30 30 30 29 29 29 29 29 29 29 30 30 31 31 31 30 30 30 31 31 32 32 31 31 31 31 30 30 31 31 30 30 30 31 31 31
31 31 32 32 31 31 31 30 30 30 30 30 30 30 31 32 32 31 30 31 32 33 33 33 33 33 33 32 32 31 32 32 31 31 31 31 31 31
31 32 32 33 33 33 33 33 32 32 31 31 31 31 31 32 33 32 31 32 32 33 33 34 34 34 34 33 33 32 32 33 33 32 32 32 32 31
Wind_Direction
291 291 290 288 287 284 283 284 283 283 282 282 280 278 274 273 272 270 271 271 269 268 268 267 269 272 276 277 275 275 274 273 272 271 272 270 270 273
290 290 290 287 285 286 285 284 284 284 283 281 282 280 278 274 271 269 267 268 266 264 264 264 267 271 273 274 274 274 274 274 272 270 267 266 268 271
290 290 291 287 285 284 284 285 285 285 284 282 281 280 278 276 272 271 270 266 266 264 261 261 264 268 271 272 272 273 271 271 270 268 265 265 266 270
290 291 291 289 286 283 283 286 287 287 284 281 278 277 277 278 275 272 269 269 267 265 263 262 264 267 269 269 269 269 269 269 268 266 266 266 266 269
289 291 290 286 285 282 282 285 285 286 284 283 281 278 277 276 273 270 270 268 266 266 265 265 264 267 268 267 267 267 269 267 266 266 267 266 267 267
288 290 289 284 284 282 282 285 285 286 285 284 282 280 276 274 272 270 269 267 266 266 268 265 265 267 268 269 267 266 266 266 265 267 267 267 267 267
289 289 286 283 282 282 283 284 285 286 285 283 280 277 275 273 271 269 267 267 269 268 269 267 266 267 267 269 269 266 263 264 264 266 268 267 268 269
292 289 286 285 283 282 283 283 284 284 284 282 279 276 273 269 267 267 268 269 269 267 269 268 268 268 268 269 268 266 265 266 266 266 266 266 267 268
293 289 287 287 282 282 282 282 282 282 282 282 280 276 272 267 266 268 269 267 267 266 268 267 267 268 268 267 266 266 266 266 263 264 265 265 265 268
290 288 286 286 284 283 282 282 283 282 282 282 280 277 273 268 266 268 269 267 268 267 268 268 267 267 267 266 267 268 267 265 263 263 264 265 267 269
288 287 287 288 286 283 282 281 281 281 282 282 280 277 273 269 267 266 268 268 268 269 269 269 268 266 266 268 268 269 268 265 264 263 264 266 267 268
290 290 288 287 286 282 282 282 281 281 281 281 279 276 271 267 266 267 268 268 268 268 268 269 268 267 266 266 268 269 268 267 267 266 267 268 269 269
289 289 288 287 287 286 283 282 281 280 279 279 277 273 269 265 265 267 268 268 269 268 268 269 268 267 267 268 269 269 269 267 267 268 269 270 269 268
287 287 286 286 287 287 287 283 281 279 278 277 275 271 267 265 264 266 268 267 267 268 268 269 269 268 267 268 269 269 268 268 268 269 270 269 268 268
285 284 285 287 287 287 288 285 282 281 277 275 273 270 267 264 265 267 269 267 266 267 267 268 268 268 267 268 269 269 268 269 270 270 270 269 269 269
283 283 285 286 287 288 287 285 283 279 277 276 275 271 267 265 266 268 268 268 268 267 268 268 269 268 268 269 269 269 270 271 272 272 269 270 271 271
282 283 284 285 286 286 285 285 284 279 276 276 275 271 268 267 267 268 268 270 270 270 269 268 268 268 268 269 270 271 272 272 273 272 272 273 273 272
282 282 283 284 284 284 284 284 283 281 278 276 274 272 269 269 269 269 269 270 270 271 271 270 268 268 268 269 271 271 271 272 273 273 273 272 272 272
281 281 282 283 283 283 283 283 282 281 279 277 274 272 270 270 270 270 271 271 271 271 271 272 271 270 270 270 271 272 272 271 273 274 273 272 271 271
280 280 281 283 283 283 283 282 281 281 280 278 276 273 271 270 270 271 271 270 269 270 270 271 272 271 271 271 271 271 272 273 273 274 273 272 270 268
280 280 280 281 283 283 283 284 283 283 282 280 277 275 273 271 271 272 271 269 270 269 269 270 271 271 270 271 271 270 271 272 273 273 273 272 270 267
280 280 279 280 281 282 282 283 284 283 282 281 279 277 276 274 273 273 271 270 270 269 269 268 268 270 271 273 274 273 272 272 273 273 273 272 270 268
280 279 278 279 280 281 281 281 282 281 280 279 279 278 278 277 275 273 271 270 270 269 268 268 267 269 270 271 272 272 272 272 272 272 272 272 271 270
Height
5789 5788 5787 5785 5784 5783 5782 5782 5782 5781 5781 5780 5779 5779 5779 5779 5779 5779 5780 5780 5781 5782 5783 5784 5785 5785 5786 5786 5786 5787 5787 5788 5789 5789 5790 5790 5790 5790
5784 5783 5781 5779 5778 5777 5777 5776 5775 5775 5775 5774 5773 5772 5772 5773 5773 5773 5774 5775 5775 5776 5777 5778 5780 5780 5781 5782 5782 5782 5783 5783 5784 5785 5785 5786 5786 5786
5779 5777 5776 5774 5773 5772 5771 5770 5769 5769 5768 5768 5767 5766 5766 5766 5766 5767 5768 5768 5769 5770 5772 5773 5774 5775 5776 5776 5777 5777 5778 5778 5779 5780 5780 5781 5782 5782
5773 5771 5770 5768 5767 5766 5765 5764 5763 5762 5762 5761 5761 5761 5760 5760 5760 5761 5761 5763 5763 5765 5766 5767 5768 5769 5770 5771 5771 5772 5773 5773 5774 5775 5776 5777 5777 5777
5766 5765 5763 5761 5760 5760 5759 5758 5757 5756 5755 5755 5754 5754 5754 5754 5755 5755 5756 5757 5758 5759 5760 5761 5762 5763 5764 5765 5766 5766 5767 5768 5769 5769 5770 5771 5772 5772
5759 5758 5756 5755 5754 5753 5753 5752 5751 5750 5749 5748 5748 5748 5748 5748 5749 5750 5751 5751 5752 5753 5754 5755 5756 5757 5758 5759 5760 5761 5761 5762 5762 5763 5764 5765 5766 5767
5752 5751 5749 5748 5747 5747 5746 5746 5745 5744 5743 5743 5742 5742 5742 5743 5743 5744 5745 5745 5746 5747 5748 5749 5750 5752 5752 5753 5753 5754 5755 5756 5756 5758 5758 5759 5760 5760
5745 5744 5742 5742 5741 5740 5740 5739 5738 5737 5737 5736 5736 5736 5736 5736 5737 5738 5739 5740 5740 5742 5742 5743 5744 5745 5746 5746 5747 5748 5748 5749 5750 5751 5752 5753 5754 5754
5739 5737 5736 5735 5734 5733 5733 5732 5731 5731 5730 5729 5729 5729 5730 5730 5731 5732 5733 5733 5734 5735 5736 5737 5738 5739 5739 5740 5740 5741 5742 5742 5743 5744 5745 5746 5747 5747
5732 5731 5730 5729 5727 5726 5726 5725 5725 5724 5723 5723 5723 5723 5723 5723 5724 5725 5726 5727 5727 5728 5729 5731 5731 5732 5733 5733 5734 5734 5735 5735 5736 5737 5738 5739 5739 5740
5725 5724 5723 5721 5720 5719 5718 5718 5717 5717 5716 5715 5715 5715 5715 5716 5717 5718 5719 5720 5721 5721 5722 5723 5724 5725 5726 5726 5727 5727 5727 5728 5729 5729 5730 5731 5732 5732
5719 5717 5716 5714 5713 5711 5711 5710 5710 5709 5708 5707 5707 5707 5707 5708 5709 5710 5711 5712 5713 5714 5715 5716 5716 5717 5719 5719 5719 5719 5720 5720 5721 5721 5722 5723 5723 5723
5712 5710 5709 5707 5706 5704 5703 5702 5702 5701 5700 5699 5699 5699 5699 5700 5702 5702 5703 5705 5706 5707 5707 5708 5709 5709 5710 5712 5712 5712 5712 5713 5713 5713 5714 5714 5714 5714
5704 5703 5702 5700 5699 5698 5696 5695 5693 5693 5692 5691 5691 5691 5692 5693 5694 5695 5695 5696 5697 5698 5699 5700 5700 5701 5702 5703 5704 5704 5704 5704 5705 5705 5705 5705 5705 5705
5697 5696 5694 5693 5692 5690 5689 5687 5686 5685 5684 5684 5684 5684 5685 5685 5686 5687 5687 5688 5689 5690 5691 5691 5692 5693 5694 5695 5695 5695 5696 5696 5696 5696 5696 5696 5696 5696
5689 5688 5687 5685 5684 5683 5681 5679 5678 5677 5676 5676 5676 5676 5677 5677 5678 5679 5680 5680 5681 5682 5683 5683 5683 5684 5685 5686 5687 5687 5687 5688 5688 5688 5687 5687 5687 5686
5681 5680 5679 5678 5676 5675 5673 5672 5671 5669 5669 5668 5668 5668 5668 5669 5670 5671 5672 5672 5673 5674 5674 5674 5675 5675 5676 5677 5678 5678 5679 5679 5679 5679 5678 5678 5678 5677
5672 5672 5671 5669 5668 5667 5665 5664 5663 5662 5661 5660 5659 5660 5660 5660 5661 5661 5663 5663 5664 5664 5665 5665 5666 5666 5667 5668 5669 5669 5669 5669 5669 5669 5669 5669 5669 5669
5664 5663 5662 5661 5659 5658 5657 5656 5655 5653 5652 5651 5651 5651 5651 5651 5652 5652 5653 5653 5654 5654 5655 5656 5656 5656 5657 5658 5659 5659 5659 5660 5660 5659 5659 5659 5660 5660
5654 5653 5653 5652 5650 5649 5648 5647 5646 5645 5643 5642 5642 5641 5641 5641 5642 5643 5643 5643 5644 5644 5645 5646 5646 5647 5647 5649 5649 5649 5649 5649 5650 5650 5649 5649 5650 5650
5645 5644 5643 5642 5641 5640 5639 5638 5637 5636 5634 5633 5633 5632 5631 5631 5631 5632 5632 5632 5633 5634 5635 5636 5636 5636 5637 5638 5639 5639 5639 5639 5639 5639 5639 5639 5640 5640
5635 5634 5633 5632 5631 5630 5629 5628 5627 5626 5625 5624 5623 5622 5621 5621 5621 5621 5622 5622 5623 5623 5624 5625 5625 5626 5626 5627 5628 5628 5628 5628 5628 5628 5628 5629 5628 5629
5624 5623 5622 5621 5621 5619 5618 5617 5617 5616 5615 5614 5613 5612 5611 5611 5610 5611 5611 5611 5611 5612 5612 5613 5614 5615 5615 5615 5616 5617 5617 5617 5617 5618 5618 5618 5618 5618